| time (UTC) | temp F | wind direction | speed MPH | gust MPH | rain 1hr in | rain 24hr in | rain mn in | humidity % | barometer mb |
| 20260507070341 | 61 | 97 | 1.0 | 2.0 | 0.00 | 0.00 | 0.00 | 52 | 1012.7 |
| 20260507065838 | 62 | 90 | 0.0 | 3.0 | 0.00 | 0.00 | 0.00 | 50 | 1012.7 |
| 20260507065334 | 63 | 252 | 3.0 | 5.0 | 0.00 | 0.00 | 0.00 | 49 | 1012.5 |
| 20260507064831 | 63 | 287 | 2.0 | 5.0 | 0.00 | 0.00 | 0.00 | 48 | 1012.7 |
| 20260507064330 | 64 | 283 | 6.0 | 9.0 | 0.00 | 0.00 | 0.00 | 47 | 1012.4 |
| 20260507063827 | 64 | 286 | 2.0 | 9.0 | 0.00 | 0.00 | 0.00 | 47 | 1012.5 |
| 20260507063324 | 64 | 213 | 4.0 | 10.0 | 0.00 | 0.00 | 0.00 | 47 | 1012.8 |
| 20260507062821 | 64 | 228 | 4.0 | 9.0 | 0.00 | 0.00 | 0.00 | 47 | 1012.5 |
| 20260507062318 | 64 | 270 | 3.0 | 7.0 | 0.00 | 0.00 | 0.00 | 46 | 1012.6 |
| 20260507061816 | 64 | 303 | 4.0 | 7.0 | 0.00 | 0.00 | 0.00 | 45 | 1012.5 |
| 20260507061314 | 64 | 270 | 2.0 | 5.0 | 0.00 | 0.00 | 0.00 | 46 | 1012.6 |
| 20260507060812 | 64 | 278 | 3.0 | 7.0 | 0.00 | 0.00 | 0.00 | 45 | 1012.6 |
| 20260507060308 | 64 | 253 | 3.0 | 11.0 | 0.00 | 0.00 | 0.00 | 45 | 1012.6 |
| 20260507055805 | 64 | 227 | 3.0 | 5.0 | 0.00 | 0.00 | 0.00 | 44 | 1012.7 |
| 20260507055300 | 64 | 228 | 4.0 | 12.0 | 0.00 | 0.00 | 0.00 | 43 | 1012.7 |
| 20260507054756 | 64 | 264 | 3.0 | 9.0 | 0.00 | 0.00 | 0.00 | 43 | 1012.7 |
| 20260507054253 | 64 | 188 | 0.0 | 3.0 | 0.00 | 0.00 | 0.00 | 43 | 1012.6 |
| 20260507053750 | 64 | 240 | 1.0 | 5.0 | 0.00 | 0.00 | 0.00 | 43 | 1012.6 |
| 20260507053248 | 64 | 253 | 3.0 | 3.0 | 0.00 | 0.00 | 0.00 | 42 | 1012.7 |
| 20260507052747 | 65 | 285 | 3.0 | 8.0 | 0.00 | 0.00 | 0.00 | 41 | 1012.5 |
| 20260507052243 | 65 | 291 | 6.0 | 10.0 | 0.00 | 0.00 | 0.00 | 41 | 1012.6 |
| 20260507051741 | 64 | 235 | 4.0 | 7.0 | 0.00 | 0.00 | 0.00 | 41 | 1012.3 |
| 20260507051237 | 63 | 157 | 1.0 | 3.0 | 0.00 | 0.00 | 0.00 | 43 | 1012.5 |
| 20260507050734 | 63 | 261 | 0.0 | 3.0 | 0.00 | 0.00 | 0.00 | 42 | 1012.6 |
| 20260507050231 | 64 | 248 | 3.0 | 4.0 | 0.00 | 0.00 | 0.00 | 41 | 1012.3 |
| 20260507045728 | 64 | 270 | 0.0 | 4.0 | 0.00 | 0.00 | 0.00 | 40 | 1012.4 |
| 20260507045224 | 64 | 251 | 1.0 | 6.0 | 0.00 | 0.00 | 0.00 | 41 | 1012.4 |
| 20260507044722 | 64 | 255 | 5.0 | 5.0 | 0.00 | 0.00 | 0.00 | 41 | 1012.8 |
| 20260507044218 | 65 | 180 | 2.0 | 2.0 | 0.00 | 0.00 | 0.00 | 40 | 1012.4 |
| 20260507043714 | 64 | 258 | 0.0 | 5.0 | 0.00 | 0.00 | 0.00 | 40 | 1012.5 |
| 20260507043211 | 64 | 261 | 0.0 | 8.0 | 0.00 | 0.00 | 0.00 | 40 | 1012.5 |
| 20260507042708 | 64 | 157 | 2.0 | 6.0 | 0.00 | 0.00 | 0.00 | 41 | 1012.6 |
| 20260507042202 | 63 | 261 | 0.0 | 5.0 | 0.00 | 0.00 | 0.00 | 43 | 1012.7 |
| 20260507041700 | 64 | 262 | 0.0 | 1.0 | 0.00 | 0.00 | 0.00 | 42 | 1012.5 |
| 20260507041156 | 65 | 288 | 2.0 | 6.0 | 0.00 | 0.00 | 0.00 | 39 | 1012.6 |
| 20260507040653 | 64 | 274 | 3.0 | 5.0 | 0.00 | 0.00 | 0.00 | 41 | 1012.5 |
| 20260507040150 | 65 | 273 | 4.0 | 6.0 | 0.00 | 0.00 | 0.00 | 40 | 1012.7 |
| 20260507035646 | 65 | 272 | 5.0 | 6.0 | 0.00 | 0.00 | 0.00 | 39 | 1012.5 |
| 20260507035142 | 65 | 251 | 1.0 | 5.0 | 0.00 | 0.00 | 0.00 | 41 | 1012.5 |
| 20260507034639 | 64 | 287 | 2.0 | 5.0 | 0.00 | 0.00 | 0.00 | 43 | 1012.3 |
| 20260507034136 | 63 | 18 | 0.0 | 3.0 | 0.00 | 0.00 | 0.00 | 47 | 1012.5 |
| 20260507033635 | 61 | 126 | 1.0 | 3.0 | 0.00 | 0.00 | 0.00 | 50 | 1012.4 |
| 20260507033131 | 61 | 41 | 2.0 | 5.0 | 0.00 | 0.00 | 0.00 | 49 | 1012.1 |
| 20260507032629 | 62 | 76 | 3.0 | 4.0 | 0.00 | 0.00 | 0.00 | 54 | 1012.3 |
| 20260507032124 | 63 | 106 | 3.0 | 7.0 | 0.00 | 0.00 | 0.00 | 52 | 1012.0 |
| 20260507031622 | 60 | 101 | 3.0 | 4.0 | 0.00 | 0.00 | 0.00 | 58 | 1011.9 |
| 20260507031118 | 60 | 105 | 3.0 | 6.0 | 0.00 | 0.00 | 0.00 | 58 | 1011.8 |
| 20260507030615 | 60 | 107 | 0.0 | 4.0 | 0.00 | 0.00 | 0.00 | 60 | 1011.7 |
| 20260507030113 | 60 | 90 | 2.0 | 3.0 | 0.00 | 0.00 | 0.00 | 57 | 1011.8 |
| 20260507025610 | 60 | 125 | 2.0 | 3.0 | 0.00 | 0.00 | 0.00 | 57 | 1011.6 |
| 20260507025107 | 61 | 65 | 2.0 | 4.0 | 0.00 | 0.00 | 0.00 | 57 | 1011.7 |
| 20260507024605 | 60 | 108 | 5.0 | 10.0 | 0.00 | 0.00 | 0.00 | 58 | 1011.5 |
| 20260507024102 | 61 | 94 | 5.0 | 11.0 | 0.00 | 0.00 | 0.00 | 57 | 1011.5 |
| 20260507023557 | 61 | 110 | 6.0 | 8.0 | 0.00 | 0.00 | 0.00 | 56 | 1011.7 |
| 20260507023055 | 62 | 88 | 6.0 | 7.0 | 0.00 | 0.00 | 0.00 | 55 | 1011.7 |
| 20260507022551 | 63 | 95 | 6.0 | 8.0 | 0.00 | 0.00 | 0.00 | 51 | 1011.5 |
| 20260507022046 | 63 | 120 | 7.0 | 8.0 | 0.00 | 0.00 | 0.00 | 49 | 1011.8 |
| 20260507021543 | 63 | 109 | 8.0 | 9.0 | 0.00 | 0.00 | 0.00 | 49 | 1011.6 |
| 20260507021040 | 63 | 135 | 4.0 | 10.0 | 0.00 | 0.00 | 0.00 | 51 | 1011.5 |
| 20260507020538 | 63 | 134 | 4.0 | 10.0 | 0.00 | 0.00 | 0.00 | 53 | 1011.7 |
| 20260507020034 | 62 | 108 | 5.0 | 7.0 | 0.00 | 0.00 | 0.00 | 54 | 1011.7 |
| 20260507015532 | 63 | 113 | 6.0 | 6.0 | 0.00 | 0.00 | 0.00 | 55 | 1011.5 |
| 20260507015029 | 63 | 123 | 5.0 | 5.0 | 0.00 | 0.00 | 0.00 | 56 | 1011.6 |
| 20260507014526 | 63 | 108 | 4.0 | 10.0 | 0.00 | 0.00 | 0.00 | 55 | 1011.7 |
| 20260507014021 | 64 | 70 | 3.0 | 8.0 | 0.00 | 0.00 | 0.00 | 50 | 1011.6 |
| 20260507013518 | 64 | 129 | 5.0 | 9.0 | 0.00 | 0.00 | 0.00 | 51 | 1011.6 |
| 20260507013016 | 64 | 106 | 3.0 | 6.0 | 0.00 | 0.00 | 0.00 | 54 | 1011.8 |
| 20260507012513 | 63 | 113 | 5.0 | 9.0 | 0.00 | 0.00 | 0.00 | 56 | 1011.7 |
| 20260507012009 | 63 | 145 | 3.0 | 7.0 | 0.00 | 0.00 | 0.00 | 60 | 1011.8 |
| 20260507011506 | 63 | 103 | 2.0 | 5.0 | 0.00 | 0.00 | 0.00 | 62 | 1011.6 |
| 20260507011002 | 63 | 92 | 5.0 | 5.0 | 0.00 | 0.00 | 0.00 | 62 | 1011.6 |
| 20260507010456 | 64 | 75 | 2.0 | 5.0 | 0.00 | 0.00 | 0.00 | 60 | 1011.9 |
| 20260507005953 | 64 | 111 | 3.0 | 3.0 | 0.00 | 0.00 | 0.00 | 60 | 1011.8 |
| 20260507005451 | 65 | 101 | 2.0 | 2.0 | 0.00 | 0.00 | 0.00 | 55 | 1012.0 |
| 20260507004947 | 65 | 90 | 0.0 | 0.0 | 0.00 | 0.00 | 0.00 | 57 | 1011.8 |
| 20260507004444 | 65 | 82 | 1.0 | 2.0 | 0.00 | 0.00 | 0.00 | 57 | 1011.6 |
| 20260507003942 | 65 | 117 | 0.0 | 2.0 | 0.00 | 0.00 | 0.00 | 56 | 1011.7 |
| 20260507003437 | 64 | 123 | 0.0 | 0.0 | 0.00 | 0.00 | 0.00 | 58 | 1011.9 |
| 20260507002932 | 64 | 95 | 3.0 | 5.0 | 0.00 | 0.00 | 0.00 | 58 | 1011.9 |
| 20260507002428 | 64 | 105 | 7.0 | 7.0 | 0.00 | 0.00 | 0.00 | 55 | 1011.8 |
| 20260507001926 | 65 | 155 | 3.0 | 5.0 | 0.00 | 0.00 | 0.00 | 57 | 1011.9 |
| 20260507001422 | 66 | 90 | 3.0 | 5.0 | 0.00 | 0.00 | 0.00 | 53 | 1011.9 |
| 20260507000920 | 66 | 8 | 0.0 | 5.0 | 0.00 | 0.00 | 0.00 | 52 | 1011.9 |
| 20260507000415 | 68 | 20 | 3.0 | 3.0 | 0.00 | 0.00 | 0.00 | 44 | 1011.5 |
| 20260506235911 | 68 | 0 | 1.0 | 3.0 | 0.00 | 0.00 | 0.00 | 42 | 1011.8 |
| 20260506235409 | 68 | 68 | 2.0 | 3.0 | 0.00 | 0.00 | 0.00 | 46 | 1011.8 |
| 20260506234904 | 68 | 270 | 5.0 | 6.0 | 0.00 | 0.00 | 0.00 | 43 | 1012.1 |
| 20260506234402 | 68 | 263 | 3.0 | 5.0 | 0.00 | 0.00 | 0.00 | 42 | 1012.1 |
| 20260506233900 | 68 | 210 | 4.0 | 4.0 | 0.00 | 0.00 | 0.00 | 44 | 1011.8 |
| 20260506233355 | 68 | 180 | 1.0 | 2.0 | 0.00 | 0.00 | 0.00 | 47 | 1011.8 |
| 20260506232852 | 67 | 90 | 0.0 | 5.0 | 0.00 | 0.00 | 0.00 | 50 | 1011.9 |
| 20260506232348 | 66 | 243 | 4.0 | 17.0 | 0.00 | 0.00 | 0.00 | 48 | 1012.1 |
| 20260506231844 | 66 | 276 | 4.0 | 14.0 | 0.00 | 0.00 | 0.00 | 51 | 1012.6 |
| 20260506231342 | 66 | 294 | 11.0 | 29.0 | 0.00 | 0.00 | 0.00 | 51 | 1012.8 |
| 20260506230839 | 69 | 270 | 4.0 | 8.0 | 0.00 | 0.00 | 0.00 | 40 | 1012.5 |
| 20260506230336 | 69 | 348 | 1.0 | 3.0 | 0.00 | 0.00 | 0.00 | 39 | 1011.9 |
| 20260506225832 | 69 | 270 | 0.0 | 4.0 | 0.00 | 0.00 | 0.00 | 37 | 1012.1 |
| 20260506225330 | 70 | 315 | 3.0 | 5.0 | 0.00 | 0.00 | 0.00 | 37 | 1011.7 |
| 20260506224827 | 70 | 291 | 0.0 | 4.0 | 0.00 | 0.00 | 0.00 | 37 | 1012.0 |
| 20260506224324 | 70 | 257 | 2.0 | 5.0 | 0.00 | 0.00 | 0.00 | 38 | 1011.9 |
| 20260506223820 | 70 | 301 | 4.0 | 5.0 | 0.00 | 0.00 | 0.00 | 37 | 1012.0 |
| 20260506223315 | 71 | 261 | 2.0 | 4.0 | 0.00 | 0.00 | 0.00 | 36 | 1012.0 |
| 20260506222813 | 73 | 194 | 1.0 | 2.0 | 0.00 | 0.00 | 0.00 | 36 | 1012.5 |
| 20260506222308 | 72 | 117 | 1.0 | 3.0 | 0.00 | 0.00 | 0.00 | 36 | 1012.4 |
| 20260506221806 | 73 | 77 | 0.0 | 3.0 | 0.00 | 0.00 | 0.00 | 38 | 1012.6 |
| 20260506221304 | 71 | 170 | 3.0 | 3.0 | 0.00 | 0.00 | 0.00 | 36 | 1012.8 |
| 20260506220801 | 72 | 23 | 0.0 | 3.0 | 0.00 | 0.00 | 0.00 | 37 | 1012.7 |
| 20260506220256 | 71 | 213 | 2.0 | 3.0 | 0.00 | 0.00 | 0.00 | 35 | 1012.8 |
| 20260506215753 | 70 | 279 | 2.0 | 3.0 | 0.00 | 0.00 | 0.00 | 35 | 1012.7 |
| 20260506215249 | 69 | 0 | 3.0 | 4.0 | 0.00 | 0.00 | 0.00 | 35 | 1012.9 |
| 20260506214745 | 71 | 311 | 3.0 | 5.0 | 0.00 | 0.00 | 0.00 | 34 | 1013.1 |
| 20260506214242 | 69 | 213 | 4.0 | 5.0 | 0.00 | 0.00 | 0.00 | 35 | 1013.1 |
| 20260506213740 | 69 | 283 | 0.0 | 6.0 | 0.00 | 0.00 | 0.00 | 37 | 1013.1 |
| 20260506213232 | 68 | 252 | 3.0 | 5.0 | 0.00 | 0.00 | 0.00 | 37 | 1013.5 |
| 20260506212729 | 68 | 98 | 0.0 | 3.0 | 0.00 | 0.00 | 0.00 | 35 | 1013.5 |
| 20260506212224 | 67 | 345 | 1.0 | 5.0 | 0.00 | 0.00 | 0.00 | 37 | 1013.6 |
| 20260506211720 | 68 | 111 | 1.0 | 2.0 | 0.00 | 0.00 | 0.00 | 36 | 1013.7 |
| 20260506211216 | 66 | 354 | 1.0 | 4.0 | 0.00 | 0.00 | 0.00 | 37 | 1013.7 |
| 20260506210713 | 66 | 26 | 1.0 | 4.0 | 0.00 | 0.00 | 0.00 | 36 | 1014.1 |
| 20260506210210 | 67 | 9 | 2.0 | 4.0 | 0.00 | 0.00 | 0.00 | 36 | 1014.0 |
| 20260506205707 | 66 | 315 | 3.0 | 4.0 | 0.00 | 0.00 | 0.00 | 37 | 1014.2 |
| 20260506205202 | 65 | 250 | 2.0 | 6.0 | 0.00 | 0.00 | 0.00 | 38 | 1014.1 |
| 20260506204700 | 66 | 255 | 2.0 | 7.0 | 0.00 | 0.00 | 0.00 | 37 | 1014.4 |
| 20260506204156 | 66 | 124 | 0.0 | 3.0 | 0.00 | 0.00 | 0.00 | 35 | 1014.1 |
| 20260506203655 | 66 | 56 | 2.0 | 4.0 | 0.00 | 0.00 | 0.00 | 37 | 1014.6 |
| 20260506203152 | 63 | 74 | 2.0 | 6.0 | 0.00 | 0.00 | 0.00 | 38 | 1014.2 |
| 20260506202650 | 65 | 57 | 2.0 | 5.0 | 0.00 | 0.00 | 0.00 | 36 | 1014.1 |
| 20260506202145 | 64 | 160 | 1.0 | 4.0 | 0.00 | 0.00 | 0.00 | 36 | 1014.6 |
| 20260506201642 | 62 | 40 | 2.0 | 6.0 | 0.00 | 0.00 | 0.00 | 38 | 1014.6 |
| 20260506201139 | 63 | 277 | 8.0 | 8.0 | 0.00 | 0.00 | 0.00 | 38 | 1014.6 |
| 20260506200636 | 64 | 235 | 4.0 | 7.0 | 0.00 | 0.00 | 0.00 | 39 | 1014.7 |
| 20260506200133 | 62 | 213 | 3.0 | 5.0 | 0.00 | 0.00 | 0.00 | 38 | 1014.8 |
| 20260506195629 | 61 | 293 | 5.0 | 7.0 | 0.00 | 0.00 | 0.00 | 40 | 1014.8 |
| 20260506195125 | 62 | 11 | 4.0 | 5.0 | 0.00 | 0.00 | 0.00 | 41 | 1015.0 |
| 20260506194623 | 61 | 261 | 0.0 | 2.0 | 0.00 | 0.00 | 0.00 | 39 | 1015.1 |
| 20260506194119 | 60 | 266 | 5.0 | 9.0 | 0.00 | 0.00 | 0.00 | 39 | 1015.2 |
| 20260506193617 | 60 | 277 | 3.0 | 5.0 | 0.00 | 0.00 | 0.00 | 41 | 1015.1 |
| 20260506193114 | 60 | 276 | 5.0 | 6.0 | 0.00 | 0.00 | 0.00 | 39 | 1015.5 |
| 20260506192611 | 59 | 259 | 4.0 | 8.0 | 0.00 | 0.00 | 0.00 | 40 | 1015.5 |
| 20260506192107 | 59 | 249 | 1.0 | 8.0 | 0.00 | 0.00 | 0.00 | 40 | 1015.5 |
| 20260506191604 | 59 | 305 | 3.0 | 6.0 | 0.00 | 0.00 | 0.00 | 41 | 1015.6 |
| 20260506191059 | 59 | 18 | 0.0 | 4.0 | 0.00 | 0.00 | 0.00 | 40 | 1016.0 |
| 20260506190557 | 60 | 312 | 5.0 | 8.0 | 0.00 | 0.00 | 0.00 | 41 | 1015.9 |
| 20260506190054 | 58 | 23 | 1.0 | 7.0 | 0.00 | 0.00 | 0.00 | 46 | 1016.0 |
| 20260506185551 | 59 | 279 | 3.0 | 5.0 | 0.00 | 0.00 | 0.00 | 45 | 1016.1 |
| 20260506185047 | 58 | 36 | 2.0 | 5.0 | 0.00 | 0.00 | 0.00 | 43 | 1016.2 |
| 20260506184545 | 57 | 66 | 0.0 | 8.0 | 0.00 | 0.00 | 0.00 | 42 | 1016.1 |
| 20260506184042 | 57 | 7 | 1.0 | 6.0 | 0.00 | 0.00 | 0.00 | 42 | 1016.4 |
| 20260506183538 | 55 | 248 | 2.0 | 6.0 | 0.00 | 0.00 | 0.00 | 49 | 1016.6 |
| 20260506183035 | 56 | 78 | 2.0 | 5.0 | 0.00 | 0.00 | 0.00 | 42 | 1016.5 |
| 20260506182532 | 55 | 281 | 2.0 | 6.0 | 0.00 | 0.00 | 0.00 | 46 | 1016.5 |
| 20260506182029 | 55 | 292 | 2.0 | 5.0 | 0.00 | 0.00 | 0.00 | 47 | 1016.6 |
| 20260506181527 | 54 | 300 | 5.0 | 6.0 | 0.00 | 0.00 | 0.00 | 45 | 1016.5 |
| 20260506181024 | 55 | 188 | 2.0 | 4.0 | 0.00 | 0.00 | 0.00 | 43 | 1016.7 |
| 20260506180520 | 54 | 294 | 4.0 | 5.0 | 0.00 | 0.00 | 0.00 | 47 | 1016.6 |
| 20260506180017 | 53 | 330 | 4.0 | 7.0 | 0.00 | 0.00 | 0.00 | 47 | 1016.7 |
| 20260506175513 | 53 | 250 | 4.0 | 5.0 | 0.00 | 0.00 | 0.00 | 46 | 1016.8 |
| 20260506175010 | 54 | 270 | 1.0 | 4.0 | 0.00 | 0.00 | 0.00 | 48 | 1017.0 |
| 20260506174508 | 53 | 243 | 0.0 | 4.0 | 0.00 | 0.00 | 0.00 | 45 | 1017.1 |
| 20260506174004 | 52 | 246 | 4.0 | 6.0 | 0.00 | 0.00 | 0.00 | 46 | 1016.9 |
| 20260506173502 | 52 | 82 | 2.0 | 6.0 | 0.00 | 0.00 | 0.00 | 48 | 1017.0 |
| 20260506172959 | 52 | 265 | 2.0 | 6.0 | 0.00 | 0.00 | 0.00 | 49 | 1017.4 |
| 20260506172456 | 52 | 272 | 4.0 | 5.0 | 0.00 | 0.00 | 0.00 | 49 | 1017.2 |
| 20260506171952 | 51 | 286 | 2.0 | 4.0 | 0.00 | 0.00 | 0.00 | 52 | 1017.2 |
| 20260506171450 | 50 | 251 | 3.0 | 6.0 | 0.00 | 0.00 | 0.00 | 53 | 1017.5 |
| 20260506170947 | 50 | 288 | 3.0 | 5.0 | 0.00 | 0.00 | 0.00 | 50 | 1017.6 |
| 20260506170443 | 50 | 330 | 3.0 | 5.0 | 0.00 | 0.00 | 0.00 | 52 | 1017.6 |
| 20260506165936 | 50 | 303 | 0.0 | 5.0 | 0.00 | 0.00 | 0.00 | 53 | 1017.5 |
| 20260506165434 | 49 | 334 | 2.0 | 4.0 | 0.00 | 0.00 | 0.00 | 53 | 1017.6 |
| 20260506164929 | 49 | 0 | 2.0 | 5.0 | 0.00 | 0.00 | 0.00 | 53 | 1018.0 |
| 20260506164427 | 49 | 103 | 2.0 | 6.0 | 0.00 | 0.00 | 0.00 | 51 | 1018.0 |
| 20260506163919 | 48 | 71 | 0.0 | 5.0 | 0.00 | 0.00 | 0.00 | 54 | 1017.9 |
| 20260506163414 | 48 | 199 | 4.0 | 4.0 | 0.00 | 0.00 | 0.00 | 52 | 1018.1 |
| 20260506162909 | 48 | 1 | 4.0 | 5.0 | 0.00 | 0.00 | 0.00 | 53 | 1018.1 |
| 20260506162407 | 47 | 280 | 5.0 | 6.0 | 0.00 | 0.00 | 0.00 | 55 | 1018.2 |
| 20260506161904 | 48 | 286 | 2.0 | 4.0 | 0.00 | 0.00 | 0.00 | 54 | 1018.3 |
| 20260506161402 | 46 | 124 | 5.0 | 5.0 | 0.00 | 0.00 | 0.00 | 55 | 1018.5 |
| 20260506160859 | 46 | 283 | 2.0 | 6.0 | 0.00 | 0.00 | 0.00 | 56 | 1018.5 |
| 20260506160356 | 47 | 328 | 1.0 | 3.0 | 0.00 | 0.00 | 0.00 | 56 | 1018.5 |
| 20260506155854 | 45 | 263 | 4.0 | 5.0 | 0.00 | 0.00 | 0.00 | 57 | 1018.7 |
| 20260506155350 | 46 | 248 | 2.0 | 2.0 | 0.00 | 0.00 | 0.00 | 54 | 1018.7 |
| 20260506153508 | 44 | 334 | 0.0 | 3.0 | 0.00 | 0.00 | 0.00 | 60 | 1018.8 |
| 20260506153005 | 44 | 289 | 0.0 | 3.0 | 0.00 | 0.00 | 0.00 | 59 | 1018.9 |
| 20260506152502 | 44 | 172 | 0.0 | 3.0 | 0.00 | 0.00 | 0.00 | 60 | 1019.0 |
| 20260506152000 | 43 | 253 | 2.0 | 5.0 | 0.00 | 0.00 | 0.00 | 60 | 1019.2 |
| 20260506151458 | 43 | 270 | 2.0 | 4.0 | 0.00 | 0.00 | 0.00 | 62 | 1019.2 |
| 20260506150955 | 42 | 285 | 2.0 | 4.0 | 0.00 | 0.00 | 0.00 | 61 | 1019.1 |
| 20260506150450 | 43 | 6 | 3.0 | 4.0 | 0.00 | 0.00 | 0.00 | 61 | 1019.1 |
| 20260506145948 | 43 | 3 | 2.0 | 5.0 | 0.00 | 0.00 | 0.00 | 60 | 1019.2 |
| 20260506145444 | 42 | 314 | 5.0 | 5.0 | 0.00 | 0.00 | 0.00 | 62 | 1019.3 |
| 20260506144942 | 42 | 284 | 3.0 | 4.0 | 0.00 | 0.00 | 0.00 | 61 | 1019.2 |
| 20260506144438 | 42 | 297 | 3.0 | 5.0 | 0.00 | 0.00 | 0.00 | 62 | 1019.2 |
| 20260506143937 | 43 | 15 | 3.0 | 3.0 | 0.00 | 0.00 | 0.00 | 62 | 1019.1 |
| 20260506143433 | 44 | 180 | 0.0 | 2.0 | 0.00 | 0.00 | 0.00 | 60 | 1019.2 |
| 20260506142932 | 42 | 282 | 0.0 | 3.0 | 0.00 | 0.00 | 0.00 | 62 | 1019.3 |
| 20260506142429 | 41 | 264 | 3.0 | 4.0 | 0.00 | 0.00 | 0.00 | 64 | 1019.2 |
| 20260506141927 | 40 | 199 | 4.0 | 5.0 | 0.00 | 0.00 | 0.00 | 65 | 1019.2 |
| 20260506141425 | 40 | 228 | 4.0 | 5.0 | 0.00 | 0.00 | 0.00 | 65 | 1019.2 |
| 20260506140923 | 40 | 291 | 3.0 | 3.0 | 0.00 | 0.00 | 0.00 | 65 | 1019.2 |
| 20260506140420 | 39 | 255 | 2.0 | 2.0 | 0.00 | 0.00 | 0.00 | 66 | 1019.1 |
| 20260506135916 | 39 | 251 | 1.0 | 3.0 | 0.00 | 0.00 | 0.00 | 66 | 1019.1 |
| 20260506135414 | 38 | 253 | 0.0 | 3.0 | 0.00 | 0.00 | 0.00 | 66 | 1019.2 |
| 20260506134910 | 38 | 174 | 1.0 | 3.0 | 0.00 | 0.00 | 0.00 | 66 | 1019.0 |
| 20260506134406 | 38 | 69 | 0.0 | 2.0 | 0.00 | 0.00 | 0.00 | 66 | 1019.2 |
| 20260506133903 | 38 | 139 | 4.0 | 7.0 | 0.00 | 0.00 | 0.00 | 66 | 1019.2 |
| 20260506133400 | 37 | 113 | 3.0 | 12.0 | 0.00 | 0.00 | 0.00 | 67 | 1018.9 |
| 20260506132856 | 37 | 124 | 9.0 | 12.0 | 0.00 | 0.00 | 0.00 | 68 | 1019.2 |
| 20260506132353 | 37 | 119 | 5.0 | 9.0 | 0.00 | 0.00 | 0.00 | 68 | 1019.2 |
| 20260506131852 | 36 | 108 | 5.0 | 10.0 | 0.00 | 0.00 | 0.00 | 68 | 1019.0 |
| 20260506131347 | 36 | 107 | 5.0 | 10.0 | 0.00 | 0.00 | 0.00 | 69 | 1019.1 |
| 20260506130845 | 35 | 125 | 5.0 | 8.0 | 0.00 | 0.00 | 0.00 | 70 | 1019.1 |
| 20260506130341 | 35 | 145 | 1.0 | 3.0 | 0.00 | 0.00 | 0.00 | 71 | 1019.1 |
| 20260506125839 | 35 | 109 | 5.0 | 5.0 | 0.00 | 0.00 | 0.00 | 71 | 1019.2 |
| 20260506125337 | 35 | 113 | 4.0 | 9.0 | 0.00 | 0.00 | 0.00 | 71 | 1019.1 |
| 20260506124835 | 35 | 125 | 4.0 | 7.0 | 0.00 | 0.00 | 0.00 | 70 | 1018.8 |
| 20260506124332 | 35 | 150 | 2.0 | 6.0 | 0.00 | 0.00 | 0.00 | 70 | 1019.0 |
| 20260506123830 | 35 | 99 | 2.0 | 11.0 | 0.00 | 0.00 | 0.00 | 70 | 1019.0 |
| 20260506123328 | 35 | 113 | 6.0 | 10.0 | 0.00 | 0.00 | 0.00 | 70 | 1019.0 |
| 20260506122825 | 35 | 125 | 4.0 | 9.0 | 0.00 | 0.00 | 0.00 | 69 | 1018.8 |
| 20260506122322 | 35 | 111 | 7.0 | 9.0 | 0.00 | 0.00 | 0.00 | 69 | 1018.9 |
| 20260506121820 | 35 | 125 | 6.0 | 8.0 | 0.00 | 0.00 | 0.00 | 69 | 1018.7 |
| 20260506121317 | 35 | 97 | 8.0 | 9.0 | 0.00 | 0.00 | 0.00 | 70 | 1018.7 |
| 20260506120814 | 35 | 118 | 5.0 | 13.0 | 0.00 | 0.00 | 0.00 | 69 | 1018.7 |
| 20260506120312 | 34 | 110 | 5.0 | 8.0 | 0.00 | 0.00 | 0.00 | 70 | 1018.7 |
| 20260506115809 | 34 | 116 | 4.0 | 8.0 | 0.00 | 0.00 | 0.00 | 71 | 1018.7 |
| 20260506115307 | 34 | 121 | 5.0 | 8.0 | 0.00 | 0.00 | 0.00 | 71 | 1018.5 |
| 20260506114804 | 35 | 126 | 8.0 | 15.0 | 0.00 | 0.00 | 0.00 | 71 | 1018.7 |
| 20260506114302 | 35 | 131 | 4.0 | 13.0 | 0.00 | 0.00 | 0.00 | 69 | 1018.6 |
| 20260506113800 | 35 | 128 | 6.0 | 10.0 | 0.00 | 0.00 | 0.00 | 70 | 1018.6 |
| 20260506113258 | 35 | 120 | 6.0 | 9.0 | 0.00 | 0.00 | 0.00 | 68 | 1018.7 |
| 20260506112754 | 36 | 113 | 3.0 | 9.0 | 0.00 | 0.00 | 0.00 | 68 | 1018.9 |
| 20260506112252 | 36 | 97 | 4.0 | 7.0 | 0.00 | 0.00 | 0.00 | 67 | 1018.9 |
| 20260506111749 | 36 | 129 | 2.0 | 7.0 | 0.00 | 0.00 | 0.00 | 66 | 1018.9 |
| 20260506111247 | 36 | 112 | 4.0 | 6.0 | 0.00 | 0.00 | 0.00 | 67 | 1018.8 |
| 20260506110743 | 36 | 127 | 2.0 | 6.0 | 0.00 | 0.00 | 0.00 | 65 | 1018.7 |
| 20260506110241 | 36 | 155 | 3.0 | 4.0 | 0.00 | 0.00 | 0.00 | 65 | 1018.9 |
| 20260506105737 | 37 | 102 | 4.0 | 8.0 | 0.00 | 0.00 | 0.00 | 64 | 1018.8 |
| 20260506105234 | 37 | 124 | 5.0 | 8.0 | 0.00 | 0.00 | 0.00 | 62 | 1018.8 |
| 20260506104732 | 37 | 126 | 3.0 | 7.0 | 0.00 | 0.00 | 0.00 | 62 | 1018.7 |
| 20260506104230 | 38 | 154 | 2.0 | 5.0 | 0.00 | 0.00 | 0.00 | 61 | 1019.0 |
| 20260506103727 | 38 | 54 | 1.0 | 2.0 | 0.00 | 0.00 | 0.00 | 64 | 1019.0 |
| 20260506103224 | 38 | 96 | 2.0 | 5.0 | 0.00 | 0.00 | 0.00 | 63 | 1018.9 |
| 20260506102722 | 38 | 66 | 0.0 | 3.0 | 0.00 | 0.00 | 0.00 | 63 | 1018.9 |
| 20260506102220 | 39 | 240 | 0.0 | 0.0 | 0.00 | 0.00 | 0.00 | 63 | 1018.7 |
| 20260506101716 | 39 | 304 | 2.0 | 2.0 | 0.00 | 0.00 | 0.00 | 61 | 1018.8 |
| 20260506101212 | 39 | 166 | 0.0 | 2.0 | 0.00 | 0.00 | 0.00 | 60 | 1018.6 |
| 20260506100711 | 40 | 188 | 2.0 | 6.0 | 0.00 | 0.00 | 0.00 | 56 | 1018.8 |
| 20260506100208 | 40 | 131 | 1.0 | 3.0 | 0.00 | 0.00 | 0.00 | 55 | 1018.7 |
| 20260506095707 | 40 | 131 | 3.0 | 9.0 | 0.00 | 0.00 | 0.00 | 55 | 1018.6 |
| 20260506095203 | 40 | 100 | 4.0 | 7.0 | 0.00 | 0.00 | 0.00 | 55 | 1018.7 |
| 20260506094700 | 41 | 140 | 6.0 | 9.0 | 0.00 | 0.00 | 0.00 | 54 | 1018.7 |
| 20260506094158 | 41 | 98 | 6.0 | 6.0 | 0.00 | 0.00 | 0.00 | 54 | 1018.7 |
| 20260506093657 | 41 | 100 | 4.0 | 10.0 | 0.00 | 0.00 | 0.00 | 54 | 1018.5 |
| 20260506093153 | 41 | 90 | 2.0 | 6.0 | 0.00 | 0.00 | 0.00 | 54 | 1018.6 |
| 20260506092651 | 41 | 135 | 2.0 | 8.0 | 0.00 | 0.00 | 0.00 | 53 | 1018.6 |
| 20260506092148 | 41 | 105 | 5.0 | 5.0 | 0.00 | 0.00 | 0.00 | 55 | 1018.8 |
| 20260506091646 | 41 | 146 | 3.0 | 4.0 | 0.00 | 0.00 | 0.00 | 55 | 1018.6 |
| 20260506091143 | 42 | 123 | 0.0 | 9.0 | 0.00 | 0.00 | 0.00 | 53 | 1018.6 |
| 20260506090641 | 42 | 155 | 5.0 | 6.0 | 0.00 | 0.00 | 0.00 | 53 | 1018.8 |
| 20260506090137 | 42 | 135 | 4.0 | 13.0 | 0.00 | 0.00 | 0.00 | 52 | 1018.5 |
| 20260506085634 | 42 | 119 | 7.0 | 15.0 | 0.00 | 0.00 | 0.00 | 52 | 1018.8 |
| 20260506085130 | 42 | 131 | 6.0 | 13.0 | 0.00 | 0.00 | 0.00 | 53 | 1018.9 |
| 20260506084627 | 42 | 94 | 5.0 | 15.0 | 0.00 | 0.00 | 0.00 | 52 | 1018.7 |
| 20260506084124 | 42 | 137 | 7.0 | 13.0 | 0.00 | 0.00 | 0.00 | 53 | 1018.6 |
| 20260506083621 | 42 | 115 | 6.0 | 12.0 | 0.00 | 0.00 | 0.00 | 53 | 1018.6 |
| 20260506083119 | 42 | 90 | 2.0 | 11.0 | 0.00 | 0.00 | 0.00 | 53 | 1018.9 |
| 20260506082615 | 42 | 149 | 6.0 | 14.0 | 0.00 | 0.00 | 0.00 | 53 | 1018.8 |
| 20260506082111 | 42 | 111 | 9.0 | 18.0 | 0.00 | 0.00 | 0.00 | 53 | 1018.9 |
| 20260506081610 | 42 | 130 | 3.0 | 13.0 | 0.00 | 0.00 | 0.00 | 53 | 1018.8 |
| 20260506081107 | 42 | 122 | 8.0 | 12.0 | 0.00 | 0.00 | 0.00 | 53 | 1018.9 |
| 20260506080604 | 42 | 108 | 10.0 | 16.0 | 0.00 | 0.00 | 0.00 | 53 | 1018.8 |
| 20260506073044 | 42 | 98 | 7.0 | 9.0 | 0.00 | 0.00 | 0.00 | 53 | 1019.1 |
| 20260506072541 | 42 | 111 | 4.0 | 5.0 | 0.00 | 0.00 | 0.00 | 54 | 1019.0 |
| 20260506072039 | 43 | 141 | 3.0 | 8.0 | 0.00 | 0.00 | 0.00 | 53 | 1019.0 |
| 20260506071537 | 43 | 116 | 4.0 | 8.0 | 0.00 | 0.00 | 0.00 | 53 | 1019.0 |
| 20260506071034 | 43 | 118 | 3.0 | 4.0 | 0.00 | 0.00 | 0.00 | 54 | 1018.9 |
| 20260506070531 | 43 | 144 | 6.0 | 9.0 | 0.00 | 0.00 | 0.00 | 53 | 1019.0 |